Flag for Hong Kong Weather past 2 weeks in Hong Kong, Hong Kong

Now
88 °F

Passing clouds.


Feels Like: 96 °F
Forecast: 79 / 89 °F
Wind: 10 mph from Northeast

Location: National Airport

Current Time: Jul 31, 2015 at 9:19:33 AM

Latest Report: Jul 31, 2015 at 9:00 AM


Visibility: N/A

Pressure: 29.86 "Hg

Humidity: 62%

Dew point: 73 °F

Location of Hong KongLocation

Historic Weather in Hong Kong — Graph

°F

Hong Kong temperature yesterday

Maximum temperature yesterday: 90 °F (at 12:30 PM)
Minimum temperature yesterday: 81 °F (at 5:00 AM)
Average temperature yesterday: 83 °F

Past Weeks' High & Low Weather Summary

 TemperatureHumidityPressure
High95 °F (Jul 19, 1:00 PM)94% (Jul 17, 5:30 AM)29.92 "Hg (Jul 17, 5:30 AM)
Low77 °F (Jul 17, 8:30 AM)47% (Jul 19, 11:30 AM)29.47 "Hg (Jul 16, 3:30 PM)
Average85 °F76%29.71 "Hg
* Reported Jul 16 8:00 AM — Jul 31 8:00 AM, Hong Kong, Weather by CustomWeather, © 2015

Note: Actual official high and low records may vary slightly from our data, if they occured in-between our weather recording intervals... More about our weather records

Advertising

Hong Kong weather history for previous 24 hours

 ConditionsComfort  
Time TempWeatherWind HumidityBarometerVisibility
8:00 AM
Fri, Jul 31
84 °FPassing clouds.7 mph74%29.86 "HgN/A
7:30 AM82 °FPassing clouds.6 mph79%29.86 "HgN/A
7:00 AM82 °FPassing clouds.6 mph79%29.86 "HgN/A
6:30 AM81 °FPassing clouds.5 mph84%29.83 "HgN/A
6:00 AM81 °FPassing clouds.3 mph79%29.83 "HgN/A
5:30 AM81 °FPassing clouds.6 mph79%29.83 "HgN/A
5:00 AM81 °FPassing clouds.5 mph84%29.83 "HgN/A
4:30 AM81 °FPassing clouds.5 mph84%29.86 "HgN/A
4:00 AM81 °FPassing clouds.6 mph84%29.86 "HgN/A
3:30 AM81 °FPassing clouds.5 mph84%29.86 "HgN/A
3:00 AM81 °FPassing clouds.5 mph84%29.86 "HgN/A
2:30 AM81 °FPassing clouds.6 mph84%29.86 "HgN/A
2:00 AM81 °FPassing clouds.5 mph84%29.86 "HgN/A
1:30 AM82 °FPassing clouds.2 mph79%29.86 "HgN/A
1:00 AM82 °FPassing clouds.2 mph79%29.86 "HgN/A
12:30 AM81 °FPassing clouds.2 mph84%29.86 "HgN/A
12:00 AM82 °FPassing clouds.5 mph74%29.86 "HgN/A
11:30 PM
Thu, Jul 30
82 °FPassing clouds.2 mph74%29.86 "HgN/A
11:00 PM82 °FPassing clouds.5 mph74%29.86 "HgN/A
10:30 PM82 °FPassing clouds.2 mph74%29.86 "HgN/A
10:00 PM82 °FPassing clouds.3 mph74%29.86 "HgN/A
9:30 PM82 °FPassing clouds.7 mph70%29.86 "HgN/A
9:00 PM82 °FPassing clouds.6 mph74%29.86 "HgN/A
8:30 PM82 °FPassing clouds.5 mph74%29.86 "HgN/A
8:00 PM84 °FPassing clouds.3 mph70%29.83 "HgN/A
7:30 PM84 °FPassing clouds.2 mph70%29.83 "HgN/A
7:00 PM82 °FPassing clouds.8 mph74%29.83 "HgN/A
6:30 PM82 °FPassing clouds.8 mph74%29.83 "HgN/A
6:00 PM82 °FPassing clouds.8 mph74%29.83 "HgN/A
5:30 PM82 °FPassing clouds.8 mph79%29.83 "HgN/A
5:00 PM82 °FPassing clouds.7 mph74%29.83 "HgN/A
4:30 PM82 °FPassing clouds.9 mph74%29.83 "HgN/A
4:00 PM82 °FPassing clouds.9 mph70%29.86 "HgN/A
3:30 PM82 °FPassing clouds.8 mph74%29.83 "HgN/A
3:00 PM84 °FPassing clouds.7 mph74%29.83 "HgN/A
2:30 PM82 °FPassing clouds.6 mph74%29.86 "HgN/A
2:00 PM82 °FThundershowers. Scattered clouds.12 mph74%29.86 "HgN/A
1:30 PM86 °FThundershowers. Scattered clouds.15 mph66%29.86 "HgN/A
1:00 PM88 °FScattered showers. Scattered clouds.17 mph66%29.86 "HgN/A
12:30 PM90 °FScattered clouds.14 mph59%29.86 "HgN/A
12:00 PM88 °FScattered clouds.13 mph62%29.86 "HgN/A
11:30 AM86 °FScattered clouds.10 mph66%29.86 "HgN/A
11:00 AM88 °FScattered clouds.13 mph66%29.86 "HgN/A
10:30 AM86 °FPassing clouds.10 mph66%29.86 "HgN/A
10:00 AM86 °FScattered clouds.13 mph70%29.86 "HgN/A
9:30 AM88 °FScattered clouds.12 mph66%29.86 "HgN/A
9:00 AM86 °FScattered clouds.12 mph70%29.86 "HgN/A
Weather by CustomWeather, © 2015

See weather overviewHow to use our weather pages